| time (UTC) | temp F | wind direction | speed knots | gust knots | rain 1hr in | rain 24hr in | rain mn in | humidity % | barometer mb |
| 20260504000034 | 60 | 271 | 0.0 | 1.7 | 0.00 | 0.01 | 0.01 | 86 | 1016.1 |
| 20260503234522 | 60 | 293 | 0.0 | 0.9 | 0.00 | 0.01 | 0.01 | 85 | 1016.0 |
| 20260503233007 | 60 | 278 | 0.0 | 0.9 | 0.00 | 0.01 | 0.01 | 85 | 1015.8 |
| 20260503231502 | 59 | 278 | 0.0 | 0.0 | 0.00 | 0.01 | 0.01 | 86 | 1016.0 |
| 20260503230059 | 59 | 269 | 0.0 | 0.9 | 0.00 | 0.01 | 0.01 | 86 | 1016.1 |
| 20260503224547 | 60 | 270 | 0.0 | 0.9 | 0.01 | 0.01 | 0.01 | 82 | 1016.1 |
| 20260503223026 | 61 | 246 | 0.0 | 0.9 | 0.01 | 0.01 | 0.01 | 81 | 1016.0 |
| 20260503221511 | 62 | 283 | 0.0 | 0.9 | 0.01 | 0.01 | 0.01 | 76 | 1015.8 |
| 20260503220105 | 64 | 261 | 0.0 | 4.3 | 0.01 | 0.01 | 0.01 | 72 | 1015.6 |
| 20260503214555 | 64 | 279 | 0.0 | 0.9 | 0.00 | 0.00 | 0.00 | 71 | 1015.7 |
| 20260503213052 | 63 | 264 | 0.0 | 0.9 | 0.00 | 0.00 | 0.00 | 71 | 1015.5 |
| 20260503211524 | 63 | 255 | 0.0 | 0.9 | 0.00 | 0.00 | 0.00 | 73 | 1015.4 |
| 20260503210017 | 62 | 250 | 0.0 | 0.9 | 0.00 | 0.00 | 0.00 | 75 | 1015.3 |
| 20260503204513 | 63 | 253 | 0.0 | 0.9 | 0.00 | 0.00 | 0.00 | 72 | 1015.0 |
| 20260503203020 | 63 | 268 | 0.0 | 0.9 | 0.00 | 0.00 | 0.00 | 71 | 1015.1 |
| 20260503201510 | 63 | 331 | 0.0 | 0.9 | 0.00 | 0.00 | 0.00 | 72 | 1014.9 |
| 20260503200005 | 63 | 271 | 0.0 | 2.6 | 0.00 | 0.00 | 0.00 | 73 | 1014.7 |
| 20260503194554 | 61 | 283 | 0.0 | 0.9 | 0.00 | 0.00 | 0.00 | 77 | 1014.6 |
| 20260503193042 | 60 | 283 | 0.0 | 0.0 | 0.00 | 0.00 | 0.00 | 81 | 1014.4 |
| 20260503191548 | 61 | 283 | 0.0 | 0.9 | 0.00 | 0.00 | 0.00 | 79 | 1014.4 |
| 20260503190019 | 61 | 283 | 0.0 | 0.0 | 0.00 | 0.00 | 0.00 | 79 | 1014.4 |
| 20260503184518 | 61 | 261 | 0.0 | 0.9 | 0.00 | 0.00 | 0.00 | 80 | 1014.5 |
| 20260503183015 | 59 | 287 | 0.0 | 0.9 | 0.00 | 0.00 | 0.00 | 83 | 1014.5 |
| 20260503181515 | 58 | 266 | 0.0 | 0.0 | 0.00 | 0.00 | 0.00 | 88 | 1014.6 |
| 20260503180026 | 58 | 266 | 0.0 | 0.9 | 0.00 | 0.00 | 0.00 | 89 | 1014.6 |
| 20260503174517 | 57 | 222 | 0.0 | 0.0 | 0.00 | 0.00 | 0.00 | 89 | 1014.6 |
| 20260503173001 | 57 | 222 | 0.0 | 0.0 | 0.00 | 0.00 | 0.00 | 88 | 1014.7 |
| 20260503171556 | 57 | 222 | 0.0 | 0.0 | 0.00 | 0.00 | 0.00 | 87 | 1014.6 |
| 20260503090104 | 58 | 73 | 0.0 | 0.0 | 0.00 | 0.00 | 0.00 | 86 | 1017.6 |
| 20260503081553 | 61 | 217 | 0.0 | 0.9 | 0.00 | 0.00 | 0.00 | 82 | 1017.2 |
| 20260503071507 | 64 | 173 | 0.0 | 0.9 | 0.00 | 0.00 | 0.00 | 77 | 1016.9 |
| 20260503054602 | 71 | 166 | 0.9 | 4.3 | 0.00 | 0.00 | 0.00 | 65 | 1017.4 |
| 20260503053048 | 70 | 165 | 0.9 | 2.6 | 0.00 | 0.00 | 0.00 | 66 | 1017.2 |
| 20260503051544 | 72 | 158 | 0.9 | 4.3 | 0.00 | 0.00 | 0.00 | 63 | 1017.3 |
| 20260503050020 | 75 | 150 | 1.7 | 4.3 | 0.00 | 0.00 | 0.00 | 59 | 1017.3 |
| 20260503044510 | 75 | 12 | 0.9 | 4.3 | 0.00 | 0.00 | 0.00 | 59 | 1017.5 |
| 20260503043006 | 74 | 165 | 0.9 | 4.3 | 0.00 | 0.00 | 0.00 | 60 | 1017.8 |
| 20260503041502 | 75 | 138 | 0.9 | 3.5 | 0.00 | 0.00 | 0.00 | 58 | 1017.8 |
| 20260503040053 | 75 | 110 | 0.0 | 3.5 | 0.00 | 0.00 | 0.00 | 60 | 1018.1 |
| 20260503034552 | 75 | 165 | 1.7 | 4.3 | 0.00 | 0.00 | 0.00 | 60 | 1018.3 |
| 20260503033039 | 73 | 12 | 0.9 | 3.5 | 0.00 | 0.00 | 0.00 | 63 | 1018.4 |
| 20260503031519 | 73 | 99 | 1.7 | 4.3 | 0.00 | 0.00 | 0.00 | 62 | 1018.6 |
| 20260503030020 | 72 | 219 | 0.0 | 3.5 | 0.00 | 0.00 | 0.00 | 65 | 1018.9 |
| 20260503024511 | 72 | 89 | 0.9 | 5.2 | 0.00 | 0.00 | 0.00 | 65 | 1019.1 |
| 20260503023100 | 72 | 83 | 1.7 | 6.1 | 0.00 | 0.00 | 0.00 | 63 | 1019.3 |
| 20260503021544 | 72 | 153 | 0.9 | 3.5 | 0.00 | 0.00 | 0.00 | 64 | 1019.5 |
| 20260503020031 | 71 | 193 | 0.0 | 3.5 | 0.00 | 0.00 | 0.00 | 65 | 1019.8 |
| 20260503014517 | 71 | 118 | 0.0 | 4.3 | 0.00 | 0.00 | 0.00 | 65 | 1020.2 |
| 20260503013026 | 72 | 123 | 0.9 | 3.5 | 0.00 | 0.00 | 0.00 | 65 | 1020.4 |
| 20260503011630 | 70 | 233 | 0.9 | 3.5 | 0.00 | 0.00 | 0.00 | 69 | 1020.7 |
| 20260503010044 | 69 | 134 | 0.9 | 4.3 | 0.00 | 0.00 | 0.00 | 70 | 1020.8 |
| 20260503004536 | 68 | 108 | 0.9 | 4.3 | 0.00 | 0.00 | 0.00 | 71 | 1020.9 |
| 20260503003035 | 67 | 179 | 0.9 | 3.5 | 0.00 | 0.00 | 0.00 | 73 | 1020.9 |
| 20260503001519 | 66 | 96 | 0.0 | 2.6 | 0.00 | 0.00 | 0.00 | 75 | 1020.9 |